Erie, PA

1:36 PM EDT on October 18, 2017 (GMT -0400)
Erie International

Weather History for KERI - July, 2012

Change the Weather History Date:

Saturday, July 7, 2012

  Actual Average Record
Temperature  
Mean Temperature 81 °F 72 °F  
Max Temperature 89 °F 80 °F 96 °F (1988)
Min Temperature 73 °F 63 °F 48 °F (1972)
Degree Days  
Heating Degree Days 0 0  
Month to date heating degree days 0 2  
Since 1 June heating degree days 43 63  
Since 1 July heating degree days 0 2  
Cooling Degree Days 16 7  
Month to date cooling degree days 91 47  
Year to date cooling degree days 370 209  
Since 1 June cooling degree days 275 170  
Growing Degree Days 31 (Base 50)    
Moisture  
Dew Point 71 °F    
Average Humidity 70    
Maximum Humidity 85    
Minimum Humidity 55    
Precipitation  
Precipitation 0.09 in 0.11 in 1.17 in (1935)
Month to date precipitation 0.79 0.76  
Year to date precipitation 15.89 19.58  
Snow  
Snow 0.00 in 0.00 in - ()
Month to date snowfall 0.0 0.0  
Since 1 June snowfall 0.0 0.0  
Since 1 July snowfall 0.0 0.0  
Snow Depth 0.00 in    
Sea Level Pressure  
Sea Level Pressure 29.89 in    
Wind  
Wind Speed 8 mph (West)    
Max Wind Speed 18 mph    
Max Gust Speed 26 mph    
Visibility 8 miles    
Events Rain , Thunderstorm    
T = Trace of Precipitation, MM = Missing Value Source: NWS Daily Summary

Daily Weather History Graph

Daily Weather History Graph

Search for Another Location

Airport or City:

Trip Planner

Search our weather history database for the weather conditions in past years. The results will help you decide how hot, cold, wet, or windy it might be!

Date:

Astronomy

Jul. 07, 2012 Rise Set
Actual Time 5:52 AM EDT 8:58 PM EDT
Civil Twilight 5:18 AM EDT 9:32 PM EDT
Nautical Twilight 4:35 AM EDT 10:15 PM EDT
Astronomical Twilight 3:43 AM EDT 11:07 PM EDT
Moon 11:11 PM EDT (7/7) 10:20 AM EDT (7/7)
Length of Visible Light 16h 14m
Length of Day
15h 06m
Waning Gibbous, 82% of the Moon is Illuminated
Jul 7
Waning Gibbous
Jul 10
Last Quarter
Jul 19
New
Jul 26
First Quarter
Aug 1
Full

Hourly Weather History & Observations

Time (EDT) Temp. Heat Index Dew Point Humidity Pressure Visibility Wind Dir Wind Speed Gust Speed Precip Events Conditions
12:51 AM 75.0 °F - 68.0 °F 79% 29.92 in 10.0 mi SSW 4.6 mph - N/A   Clear
1:51 AM 75.0 °F - 68.0 °F 79% 29.93 in 10.0 mi South 4.6 mph - N/A   Clear
2:51 AM 73.9 °F - 66.9 °F 79% 29.92 in 10.0 mi WNW 4.6 mph - N/A   Clear
3:51 AM 73.9 °F - 68.0 °F 82% 29.91 in 10.0 mi South 5.8 mph - N/A   Clear
4:51 AM 73.9 °F - 68.0 °F 82% 29.91 in 10.0 mi South 6.9 mph - N/A   Clear
5:51 AM 75.9 °F - 66.9 °F 74% 29.90 in 10.0 mi South 5.8 mph - N/A   Scattered Clouds
6:51 AM 79.0 °F - 64.0 °F 60% 29.89 in 10.0 mi SSW 9.2 mph - N/A   Clear
7:51 AM 82.0 °F 84.1 °F 66.0 °F 58% 29.87 in 10.0 mi South 10.4 mph - N/A   Clear
8:51 AM 84.0 °F 86.5 °F 66.9 °F 56% 29.88 in 10.0 mi SSW 12.7 mph - N/A   Mostly Cloudy
9:51 AM 87.1 °F 92.8 °F 71.1 °F 59% 29.88 in 10.0 mi WSW 9.2 mph - N/A   Clear
10:51 AM 88.0 °F 95.6 °F 73.0 °F 61% 29.88 in 10.0 mi WSW 11.5 mph - N/A   Clear
11:51 AM 88.0 °F 96.5 °F 73.9 °F 63% 29.90 in 10.0 mi West 11.5 mph 17.3 mph N/A   Clear
12:51 PM 86.0 °F 93.8 °F 73.9 °F 67% 29.89 in 9.0 mi West 11.5 mph - N/A   Partly Cloudy
1:51 PM 86.0 °F 93.8 °F 73.9 °F 67% 29.89 in 9.0 mi West 10.4 mph - N/A   Clear
2:51 PM 84.0 °F 91.9 °F 75.0 °F 74% 29.88 in 8.0 mi WNW 10.4 mph - N/A   Clear
3:51 PM 84.0 °F 91.9 °F 75.0 °F 74% 29.88 in 6.0 mi NW 9.2 mph - N/A   Haze
3:59 PM 82.4 °F 89.5 °F 75.2 °F 79% 29.90 in 5.0 mi WNW 9.2 mph - N/A   Haze
4:15 PM 80.6 °F 85.4 °F 73.4 °F 79% 29.89 in 6.0 mi Calm Calm - N/A   Haze
4:31 PM 84.2 °F 92.3 °F 75.2 °F 74% 29.89 in 7.0 mi WNW 4.6 mph - N/A   Scattered Clouds
4:51 PM 84.9 °F 93.3 °F 75.0 °F 72% 29.86 in 8.0 mi WNW 5.8 mph - N/A   Clear
5:51 PM 86.0 °F 95.1 °F 75.0 °F 70% 29.86 in 8.0 mi NW 5.8 mph - N/A   Clear
6:51 PM 84.0 °F 91.2 °F 73.9 °F 72% 29.87 in 8.0 mi West 6.9 mph - N/A   Partly Cloudy
7:51 PM 80.1 °F 84.5 °F 73.9 °F 81% 29.88 in 7.0 mi WNW 3.5 mph - N/A   Overcast
8:49 PM 78.8 °F - 73.4 °F 83% 29.90 in 7.0 mi North 3.5 mph - N/A   Overcast
8:51 PM 79.0 °F - 73.9 °F 84% 29.89 in 7.0 mi NW 3.5 mph - N/A   Overcast
9:24 PM 78.8 °F - 71.6 °F 78% 29.91 in 10.0 mi NE 11.5 mph - N/A   Overcast
9:44 PM 78.8 °F - 66.2 °F 65% 29.91 in 10.0 mi NE 11.5 mph - 0.00 in Rain Light Rain
9:51 PM 78.1 °F - 66.9 °F 68% 29.89 in 10.0 mi ENE 10.4 mph - 0.00 in Rain Light Rain
10:47 PM 75.2 °F - 69.8 °F 83% 29.92 in 3.0 mi ENE 9.2 mph - 0.05 in Rain , Thunderstorm Heavy Thunderstorms and Rain
10:51 PM 75.0 °F - 69.1 °F 82% 29.91 in 3.0 mi NE 9.2 mph - 0.08 in Rain , Thunderstorm Light Thunderstorms and Rain
11:21 PM 73.4 °F - 69.8 °F 88% 29.93 in 10.0 mi Calm Calm - 0.00 in   Overcast
11:51 PM 73.0 °F - 70.0 °F 90% 29.91 in 10.0 mi South 4.6 mph - 0.01 in Rain Light Rain